Time,TemperatureF,DewpointF,PressureIn,WindDirection,WindDirectionDegrees,WindSpeedMPH,WindSpeedGustMPH,Humidity,HourlyPrecipIn,Conditions,Clouds,dailyrainin,SoftwareType,DateUTC
2013-09-01 00:01:00,74.3,71.5,29.88,North,0,0.0,0.0,91,0.00,CLR,,0.00,WeatherDisplay:10.37,2013-09-01 04:01:00,
2013-09-01 00:02:00,74.3,71.5,29.88,North,0,0.0,0.0,91,0.00,CLR,,0.00,WeatherDisplay:10.37,2013-09-01 04:02:00,
2013-09-01 00:07:00,74.3,71.8,29.88,North,0,0.0,0.0,92,0.00,CLR,,0.00,WeatherDisplay:10.37,2013-09-01 04:07:00,
2013-09-01 00:12:00,74.1,71.6,29.88,North,0,0.0,0.0,92,0.00,CLR,,0.00,WeatherDisplay:10.37,2013-09-01 04:12:00,
2013-09-01 00:17:00,74.1,71.6,29.88,North,0,0.0,0.0,92,0.00,CLR,,0.00,WeatherDisplay:10.37,2013-09-01 04:17:00,
2013-09-01 00:22:00,74.1,71.6,29.88,North,0,0.0,0.0,92,0.00,CLR,,0.00,WeatherDisplay:10.37,2013-09-01 04:22:00,
2013-09-01 00:27:00,74.1,72.0,29.88,North,0,0.0,0.0,93,0.00,CLR,,0.00,WeatherDisplay:10.37,2013-09-01 04:27:00,
2013-09-01 00:32:00,74.1,72.0,29.88,North,0,0.0,0.0,93,0.00,CLR,,0.00,WeatherDisplay:10.37,2013-09-01 04:32:00,
2013-09-01 00:37:00,73.9,71.8,29.88,North,0,0.0,0.0,93,0.00,CLR,,0.00,WeatherDisplay:10.37,2013-09-01 04:37:00,
2013-09-01 00:42:00,73.9,71.8,29.88,North,0,0.0,0.0,93,0.00,CLR,,0.00,WeatherDisplay:10.37,2013-09-01 04:42:00,
2013-09-01 00:47:00,73.8,71.6,29.88,North,0,0.0,0.0,93,0.00,CLR,,0.00,WeatherDisplay:10.37,2013-09-01 04:47:00,
2013-09-01 00:52:00,73.8,71.6,29.88,North,0,0.0,0.0,93,0.00,CLR,,0.00,WeatherDisplay:10.37,2013-09-01 04:52:00,
2013-09-01 00:57:00,73.6,71.4,29.88,North,0,0.0,0.0,93,0.00,CLR,,0.00,WeatherDisplay:10.37,2013-09-01 04:57:00,
2013-09-01 01:02:00,73.6,71.4,29.88,North,0,0.0,0.0,93,0.00,CLR,,0.00,WeatherDisplay:10.37,2013-09-01 05:02:00,
2013-09-01 01:07:00,73.6,71.7,29.88,North,0,0.0,0.0,94,0.00,CLR,,0.00,WeatherDisplay:10.37,2013-09-01 05:07:00,
2013-09-01 01:12:00,73.4,71.6,29.88,North,0,0.0,0.0,94,0.00,CLR,,0.00,WeatherDisplay:10.37,2013-09-01 05:12:00,
2013-09-01 01:17:00,73.4,71.6,29.88,North,0,0.0,0.0,94,0.00,CLR,,0.00,WeatherDisplay:10.37,2013-09-01 05:17:00,
2013-09-01 01:22:00,73.4,71.6,29.88,North,0,0.0,0.0,94,0.00,CLR,,0.00,WeatherDisplay:10.37,2013-09-01 05:22:00,
2013-09-01 01:27:00,73.2,71.7,29.88,North,0,0.0,0.0,95,0.00,CLR,,0.00,WeatherDisplay:10.37,2013-09-01 05:27:00,
2013-09-01 01:33:00,73.2,71.7,29.88,North,0,0.0,0.0,95,0.00,CLR,,0.00,WeatherDisplay:10.37,2013-09-01 05:33:00,
2013-09-01 01:38:00,73.2,71.7,29.88,North,0,0.0,0.0,95,0.00,CLR,,0.00,WeatherDisplay:10.37,2013-09-01 05:38:00,
2013-09-01 01:43:00,73.0,71.5,29.88,North,0,0.0,0.0,95,0.00,CLR,,0.00,WeatherDisplay:10.37,2013-09-01 05:43:00,
2013-09-01 01:48:00,73.0,71.5,29.88,North,0,0.0,0.0,95,0.00,CLR,,0.00,WeatherDisplay:10.37,2013-09-01 05:48:00,
2013-09-01 01:53:00,73.0,71.5,29.88,North,0,0.0,0.0,95,0.00,CLR,,0.00,WeatherDisplay:10.37,2013-09-01 05:53:00,
2013-09-01 01:58:00,73.0,71.5,29.85,North,0,0.0,0.0,95,0.00,CLR,,0.00,WeatherDisplay:10.37,2013-09-01 05:58:00,
2013-09-01 02:03:00,73.0,71.5,29.85,North,0,0.0,0.0,95,0.00,CLR,,0.00,WeatherDisplay:10.37,2013-09-01 06:03:00,
2013-09-01 02:08:00,72.9,71.3,29.85,North,0,0.0,0.0,95,0.00,CLR,,0.00,WeatherDisplay:10.37,2013-09-01 06:08:00,
2013-09-01 02:13:00,73.0,71.8,29.88,North,0,0.0,0.0,96,0.00,CLR,,0.00,WeatherDisplay:10.37,2013-09-01 06:13:00,
2013-09-01 02:18:00,72.9,71.7,29.88,North,0,0.0,0.0,96,0.00,CLR,,0.00,WeatherDisplay:10.37,2013-09-01 06:18:00,
2013-09-01 02:23:00,72.9,71.7,29.88,North,0,0.0,0.0,96,0.00,CLR,,0.00,WeatherDisplay:10.37,2013-09-01 06:23:00,
2013-09-01 02:28:00,72.9,71.7,29.85,North,0,0.0,0.0,96,0.00,CLR,,0.00,WeatherDisplay:10.37,2013-09-01 06:28:00,
2013-09-01 02:33:00,72.7,71.5,29.85,North,0,0.0,0.0,96,0.00,CLR,,0.00,WeatherDisplay:10.37,2013-09-01 06:33:00,
2013-09-01 02:38:00,72.9,71.7,29.85,North,0,0.0,0.0,96,0.00,CLR,,0.00,WeatherDisplay:10.37,2013-09-01 06:38:00,
2013-09-01 02:43:00,72.7,71.5,29.85,North,0,0.0,0.0,96,0.00,CLR,,0.00,WeatherDisplay:10.37,2013-09-01 06:43:00,
2013-09-01 02:48:00,72.9,71.7,29.85,North,0,0.0,0.0,96,0.00,CLR,,0.00,WeatherDisplay:10.37,2013-09-01 06:48:00,
2013-09-01 02:53:00,72.9,71.7,29.85,North,0,0.0,0.0,96,0.00,CLR,,0.00,WeatherDisplay:10.37,2013-09-01 06:53:00,
2013-09-01 02:58:00,72.7,71.5,29.85,North,0,0.0,0.0,96,0.00,CLR,,0.00,WeatherDisplay:10.37,2013-09-01 06:58:00,
2013-09-01 03:03:00,72.7,71.5,29.85,North,0,0.0,0.0,96,0.00,CLR,,0.00,WeatherDisplay:10.37,2013-09-01 07:03:00,
2013-09-01 03:08:00,72.5,71.3,29.85,North,0,0.0,0.0,96,0.00,CLR,,0.00,WeatherDisplay:10.37,2013-09-01 07:08:00,
2013-09-01 03:13:00,72.5,71.3,29.85,North,0,0.0,0.0,96,0.00,CLR,,0.00,WeatherDisplay:10.37,2013-09-01 07:13:00,
2013-09-01 03:18:00,72.5,71.3,29.85,North,0,0.0,0.0,96,0.00,CLR,,0.00,WeatherDisplay:10.37,2013-09-01 07:18:00,
2013-09-01 03:23:00,72.5,71.3,29.85,North,0,0.0,0.0,96,0.00,CLR,,0.00,WeatherDisplay:10.37,2013-09-01 07:23:00,
2013-09-01 03:28:00,72.3,71.1,29.85,North,0,0.0,0.0,96,0.00,CLR,,0.00,WeatherDisplay:10.37,2013-09-01 07:28:00,
2013-09-01 03:33:00,72.3,71.1,29.85,North,0,0.0,0.0,96,0.00,CLR,,0.00,WeatherDisplay:10.37,2013-09-01 07:33:00,
2013-09-01 03:38:00,72.3,71.1,29.85,North,0,0.0,0.0,96,0.00,CLR,,0.00,WeatherDisplay:10.37,2013-09-01 07:38:00,
2013-09-01 03:43:00,72.3,71.1,29.85,North,0,0.0,0.0,96,0.00,CLR,,0.00,WeatherDisplay:10.37,2013-09-01 07:43:00,
2013-09-01 03:48:00,72.1,70.9,29.85,North,0,0.0,0.0,96,0.00,CLR,,0.00,WeatherDisplay:10.37,2013-09-01 07:48:00,
2013-09-01 03:53:00,72.1,70.9,29.85,North,0,0.0,0.0,96,0.00,CLR,,0.00,WeatherDisplay:10.37,2013-09-01 07:53:00,
2013-09-01 03:58:00,72.1,70.9,29.85,North,0,0.0,0.0,96,0.00,CLR,,0.00,WeatherDisplay:10.37,2013-09-01 07:58:00,
2013-09-01 04:03:00,72.1,70.9,29.85,North,0,0.0,0.0,96,0.00,CLR,,0.00,WeatherDisplay:10.37,2013-09-01 08:03:00,
2013-09-01 04:08:00,72.1,70.9,29.85,North,0,0.0,0.0,96,0.00,CLR,,0.00,WeatherDisplay:10.37,2013-09-01 08:08:00,
2013-09-01 04:13:00,72.0,70.8,29.85,North,0,0.0,0.0,96,0.00,CLR,,0.00,WeatherDisplay:10.37,2013-09-01 08:13:00,
2013-09-01 04:18:00,72.0,70.8,29.85,North,0,0.0,0.0,96,0.00,CLR,,0.00,WeatherDisplay:10.37,2013-09-01 08:18:00,
2013-09-01 04:23:00,71.8,70.6,29.85,North,0,0.0,0.0,96,0.00,CLR,,0.00,WeatherDisplay:10.37,2013-09-01 08:23:00,
2013-09-01 04:28:00,71.8,70.6,29.85,North,0,0.0,0.0,96,0.00,CLR,,0.00,WeatherDisplay:10.37,2013-09-01 08:28:00,
2013-09-01 04:33:00,71.8,70.6,29.85,North,0,0.0,0.0,96,0.00,CLR,,0.00,WeatherDisplay:10.37,2013-09-01 08:33:00,
2013-09-01 04:38:00,71.8,70.6,29.85,North,0,0.0,0.0,96,0.00,CLR,,0.00,WeatherDisplay:10.37,2013-09-01 08:38:00,
2013-09-01 04:43:00,71.8,70.6,29.85,North,0,0.0,0.0,96,0.00,CLR,,0.00,WeatherDisplay:10.37,2013-09-01 08:43:00,
2013-09-01 04:48:00,71.8,70.9,29.85,North,0,0.0,0.0,97,0.00,CLR,,0.00,WeatherDisplay:10.37,2013-09-01 08:48:00,
2013-09-01 04:53:00,71.8,70.9,29.85,North,0,0.0,0.0,97,0.00,CLR,,0.00,WeatherDisplay:10.37,2013-09-01 08:53:00,
2013-09-01 04:58:00,71.6,70.7,29.85,North,0,0.0,0.0,97,0.00,CLR,,0.00,WeatherDisplay:10.37,2013-09-01 08:58:00,
2013-09-01 05:03:00,71.6,70.7,29.85,North,0,0.0,0.0,97,0.00,CLR,,0.00,WeatherDisplay:10.37,2013-09-01 09:03:00,
2013-09-01 05:08:00,71.6,70.7,29.85,North,0,0.0,0.0,97,0.00,CLR,,0.00,WeatherDisplay:10.37,2013-09-01 09:08:00,
2013-09-01 05:13:00,71.6,70.7,29.85,North,0,0.0,0.0,97,0.00,CLR,,0.00,WeatherDisplay:10.37,2013-09-01 09:13:00,
2013-09-01 05:18:00,71.6,70.7,29.85,North,0,0.0,0.0,97,0.00,CLR,,0.00,WeatherDisplay:10.37,2013-09-01 09:18:00,
2013-09-01 05:23:00,71.6,70.7,29.85,North,0,0.0,0.0,97,0.00,CLR,,0.00,WeatherDisplay:10.37,2013-09-01 09:23:00,
2013-09-01 05:28:00,71.4,70.5,29.85,North,0,0.0,0.0,97,0.00,CLR,,0.00,WeatherDisplay:10.37,2013-09-01 09:28:00,
2013-09-01 05:33:00,71.4,70.5,29.85,North,0,0.0,0.0,97,0.00,CLR,,0.00,WeatherDisplay:10.37,2013-09-01 09:33:00,
2013-09-01 05:38:00,71.4,70.5,29.85,North,0,0.0,0.0,97,0.00,CLR,,0.00,WeatherDisplay:10.37,2013-09-01 09:38:00,
2013-09-01 05:43:00,71.4,70.5,29.85,North,0,0.0,0.0,97,0.00,CLR,,0.00,WeatherDisplay:10.37,2013-09-01 09:43:00,
2013-09-01 05:48:00,71.2,70.3,29.85,North,0,0.0,0.0,97,0.00,CLR,,0.00,WeatherDisplay:10.37,2013-09-01 09:48:00,
2013-09-01 05:53:00,71.2,70.3,29.85,North,0,0.0,0.0,97,0.00,CLR,,0.00,WeatherDisplay:10.37,2013-09-01 09:53:00,
2013-09-01 05:58:00,71.2,70.3,29.85,North,0,0.0,0.0,97,0.00,CLR,,0.00,WeatherDisplay:10.37,2013-09-01 09:58:00,
2013-09-01 06:03:00,71.2,70.3,29.85,North,0,0.0,0.0,97,0.00,CLR,,0.00,WeatherDisplay:10.37,2013-09-01 10:03:00,
2013-09-01 06:08:00,71.2,70.3,29.85,North,0,0.0,0.0,97,0.00,CLR,,0.00,WeatherDisplay:10.37,2013-09-01 10:08:00,
2013-09-01 06:13:00,71.2,70.3,29.85,North,0,0.0,0.0,97,0.00,CLR,,0.00,WeatherDisplay:10.37,2013-09-01 10:13:00,
2013-09-01 06:18:00,71.1,70.2,29.85,North,0,0.0,0.0,97,0.00,CLR,,0.00,WeatherDisplay:10.37,2013-09-01 10:18:00,
2013-09-01 06:23:00,71.1,70.2,29.85,North,0,0.0,0.0,97,0.00,CLR,,0.00,WeatherDisplay:10.37,2013-09-01 10:23:00,
2013-09-01 06:28:00,70.9,70.0,29.85,North,0,0.0,0.0,97,0.00,CLR,,0.00,WeatherDisplay:10.37,2013-09-01 10:28:00,
2013-09-01 06:33:00,70.9,70.0,29.85,North,0,0.0,0.0,97,0.00,CLR,,0.00,WeatherDisplay:10.37,2013-09-01 10:33:00,
2013-09-01 06:38:00,70.9,70.0,29.85,North,0,0.0,0.0,97,0.00,CLR,,0.00,WeatherDisplay:10.37,2013-09-01 10:38:00,
2013-09-01 06:43:00,70.9,70.3,29.85,North,0,0.0,0.0,98,0.00,CLR,,0.00,WeatherDisplay:10.37,2013-09-01 10:43:00,
2013-09-01 06:48:00,70.7,70.1,29.85,North,0,0.0,0.0,98,0.00,CLR,,0.00,WeatherDisplay:10.37,2013-09-01 10:48:00,
2013-09-01 06:53:00,70.7,70.1,29.85,North,0,0.0,0.0,98,0.00,CLR,,0.00,WeatherDisplay:10.37,2013-09-01 10:53:00,
2013-09-01 06:58:00,70.7,70.1,29.85,North,0,0.0,0.0,98,0.00,CLR,,0.00,WeatherDisplay:10.37,2013-09-01 10:58:00,
2013-09-01 07:03:00,70.7,70.1,29.85,North,0,0.0,0.0,98,0.00,CLR,,0.00,WeatherDisplay:10.37,2013-09-01 11:03:00,
2013-09-01 07:08:00,70.7,70.1,29.85,North,0,0.0,0.0,98,0.00,CLR,,0.00,WeatherDisplay:10.37,2013-09-01 11:08:00,
2013-09-01 07:13:00,70.7,70.1,29.88,North,0,0.0,0.0,98,0.00,CLR,,0.00,WeatherDisplay:10.37,2013-09-01 11:13:00,
2013-09-01 07:18:00,70.7,70.1,29.88,North,0,0.0,0.0,98,0.00,CLR,,0.00,WeatherDisplay:10.37,2013-09-01 11:18:00,
2013-09-01 07:23:00,70.7,70.1,29.88,North,0,0.0,0.0,98,0.00,CLR,,0.00,WeatherDisplay:10.37,2013-09-01 11:23:00,
2013-09-01 07:28:00,70.7,70.1,29.85,North,0,0.0,0.0,98,0.00,CLR,,0.00,WeatherDisplay:10.37,2013-09-01 11:28:00,
2013-09-01 07:33:00,70.9,70.3,29.85,North,0,0.0,0.0,98,0.00,CLR,,0.00,WeatherDisplay:10.37,2013-09-01 11:33:00,
2013-09-01 07:38:00,70.9,70.3,29.85,North,0,0.0,0.0,98,0.00,CLR,,0.00,WeatherDisplay:10.37,2013-09-01 11:38:00,
2013-09-01 07:43:00,71.1,70.5,29.88,North,0,0.0,0.0,98,0.00,CLR,,0.00,WeatherDisplay:10.37,2013-09-01 11:43:00,
2013-09-01 07:48:00,71.1,70.5,29.88,North,0,0.0,0.0,98,0.00,CLR,,0.00,WeatherDisplay:10.37,2013-09-01 11:48:00,
2013-09-01 07:53:00,71.2,70.6,29.88,North,0,0.0,0.0,98,0.00,CLR,,0.00,WeatherDisplay:10.37,2013-09-01 11:53:00,
2013-09-01 07:58:00,71.4,70.8,29.88,North,0,0.0,0.0,98,0.00,CLR,,0.00,WeatherDisplay:10.37,2013-09-01 11:58:00,
2013-09-01 08:03:00,71.8,71.2,29.88,North,0,0.0,0.0,98,0.00,CLR,,0.00,WeatherDisplay:10.37,2013-09-01 12:03:00,
2013-09-01 08:08:00,72.0,71.4,29.88,North,0,0.0,0.0,98,0.00,CLR,,0.00,WeatherDisplay:10.37,2013-09-01 12:08:00,
2013-09-01 08:13:00,72.1,71.5,29.88,North,0,0.0,0.0,98,0.00,CLR,,0.00,WeatherDisplay:10.37,2013-09-01 12:13:00,
2013-09-01 08:18:00,72.3,71.7,29.88,North,0,0.0,0.0,98,0.00,CLR,,0.00,WeatherDisplay:10.37,2013-09-01 12:18:00,
2013-09-01 08:23:00,72.7,72.1,29.88,North,0,0.0,0.0,98,0.00,CLR,,0.00,WeatherDisplay:10.37,2013-09-01 12:23:00,
2013-09-01 08:28:00,72.9,72.3,29.88,North,0,0.0,0.0,98,0.00,CLR,,0.00,WeatherDisplay:10.37,2013-09-01 12:28:00,
2013-09-01 08:33:00,73.0,72.4,29.88,North,0,0.0,0.0,98,0.00,CLR,,0.00,WeatherDisplay:10.37,2013-09-01 12:33:00,
2013-09-01 08:38:00,73.4,72.5,29.88,North,0,0.0,0.0,97,0.00,CLR,,0.00,WeatherDisplay:10.37,2013-09-01 12:38:00,
2013-09-01 08:43:00,73.8,72.9,29.88,North,0,0.0,0.0,97,0.00,CLR,,0.00,WeatherDisplay:10.37,2013-09-01 12:43:00,
2013-09-01 08:48:00,73.9,73.0,29.88,North,0,0.0,0.0,97,0.00,CLR,,0.00,WeatherDisplay:10.37,2013-09-01 12:48:00,
2013-09-01 08:53:00,74.3,73.4,29.88,SE,135,0.0,0.0,97,0.00,CLR,,0.00,WeatherDisplay:10.37,2013-09-01 12:53:00,
2013-09-01 08:58:00,74.8,73.9,29.88,SE,135,0.0,0.0,97,0.00,CLR,,0.00,WeatherDisplay:10.37,2013-09-01 12:58:00,
2013-09-01 09:03:00,75.0,74.1,29.88,ESE,112,0.0,0.0,97,0.00,CLR,,0.00,WeatherDisplay:10.37,2013-09-01 13:03:00,
2013-09-01 09:08:00,75.6,74.3,29.88,SE,135,0.0,0.0,96,0.00,CLR,,0.00,WeatherDisplay:10.37,2013-09-01 13:08:00,
2013-09-01 09:13:00,75.7,74.5,29.88,SE,135,0.0,0.0,96,0.00,CLR,,0.00,WeatherDisplay:10.37,2013-09-01 13:13:00,
2013-09-01 09:18:00,76.1,74.9,29.88,SE,135,0.0,0.0,96,0.00,CLR,,0.00,WeatherDisplay:10.37,2013-09-01 13:18:00,
2013-09-01 09:23:00,76.3,74.7,29.88,South,180,0.0,0.0,95,0.00,CLR,,0.00,WeatherDisplay:10.37,2013-09-01 13:23:00,
2013-09-01 09:28:00,76.8,75.0,29.88,South,180,0.0,0.0,94,0.00,CLR,,0.00,WeatherDisplay:10.37,2013-09-01 13:28:00,
2013-09-01 09:33:00,77.0,74.8,29.88,South,180,0.0,0.0,93,0.00,CLR,,0.00,WeatherDisplay:10.37,2013-09-01 13:33:00,
2013-09-01 09:38:00,77.4,74.5,29.88,South,180,0.0,0.0,91,0.00,CLR,,0.00,WeatherDisplay:10.37,2013-09-01 13:38:00,
2013-09-01 09:43:00,77.7,74.2,29.88,SSW,202,0.0,0.0,89,0.00,CLR,,0.00,WeatherDisplay:10.37,2013-09-01 13:43:00,
2013-09-01 09:48:00,77.9,73.4,29.88,SSW,202,0.0,0.0,86,0.00,CLR,,0.00,WeatherDisplay:10.37,2013-09-01 13:48:00,
2013-09-01 09:53:00,78.3,73.0,29.88,SSE,158,0.0,0.0,84,0.00,CLR,,0.00,WeatherDisplay:10.37,2013-09-01 13:53:00,
2013-09-01 09:58:00,78.8,72.1,29.88,SSE,158,0.0,0.0,80,0.00,CLR,,0.00,WeatherDisplay:10.37,2013-09-01 13:58:00,
2013-09-01 10:03:00,79.0,71.9,29.88,South,180,0.0,0.0,79,0.00,CLR,,0.00,WeatherDisplay:10.37,2013-09-01 14:03:00,
2013-09-01 10:08:00,79.5,71.7,29.88,South,180,0.0,0.0,77,0.00,CLR,,0.00,WeatherDisplay:10.37,2013-09-01 14:08:00,
2013-09-01 10:13:00,80.1,71.0,29.88,SE,135,0.0,0.0,74,0.00,CLR,,0.00,WeatherDisplay:10.37,2013-09-01 14:13:00,
2013-09-01 10:18:00,80.4,71.0,29.88,South,180,2.3,0.0,73,0.00,CLR,,0.00,WeatherDisplay:10.37,2013-09-01 14:18:00,
2013-09-01 10:23:00,81.0,71.5,29.88,SE,135,0.0,0.0,73,0.00,CLR,,0.00,WeatherDisplay:10.37,2013-09-01 14:23:00,
2013-09-01 10:28:00,81.5,70.8,29.88,South,180,0.0,0.0,70,0.00,CLR,,0.00,WeatherDisplay:10.37,2013-09-01 14:28:00,
2013-09-01 10:33:00,82.0,71.3,29.88,South,180,0.0,0.0,70,0.00,CLR,,0.00,WeatherDisplay:10.37,2013-09-01 14:33:00,
2013-09-01 10:38:00,82.2,70.6,29.88,South,180,0.0,0.0,68,0.00,CLR,,0.00,WeatherDisplay:10.37,2013-09-01 14:38:00,
2013-09-01 10:43:00,82.8,69.8,29.88,East,90,0.0,0.0,65,0.00,CLR,,0.00,WeatherDisplay:10.37,2013-09-01 14:43:00,
2013-09-01 10:48:00,83.5,70.0,29.88,SSE,158,0.0,0.0,64,0.00,CLR,,0.00,WeatherDisplay:10.37,2013-09-01 14:48:00,
2013-09-01 10:53:00,84.2,69.8,29.88,South,180,0.0,0.0,62,0.00,CLR,,0.00,WeatherDisplay:10.37,2013-09-01 14:53:00,
2013-09-01 10:58:00,84.9,70.0,29.88,SSE,158,0.0,0.0,61,0.00,CLR,,0.00,WeatherDisplay:10.37,2013-09-01 14:58:00,
2013-09-01 11:03:00,85.5,70.0,29.88,South,180,0.0,0.0,60,0.00,CLR,,0.00,WeatherDisplay:10.37,2013-09-01 15:03:00,
2013-09-01 11:08:00,85.6,70.2,29.88,South,180,0.0,0.0,60,0.00,CLR,,0.00,WeatherDisplay:10.37,2013-09-01 15:08:00,
2013-09-01 11:13:00,85.3,68.3,29.88,SE,135,0.0,0.0,57,0.00,CLR,,0.00,WeatherDisplay:10.37,2013-09-01 15:13:00,
2013-09-01 11:18:00,85.8,68.8,29.88,SE,135,0.0,0.0,57,0.00,CLR,,0.00,WeatherDisplay:10.37,2013-09-01 15:18:00,
2013-09-01 11:23:00,86.5,69.0,29.88,ESE,112,0.0,0.0,56,0.00,CLR,,0.00,WeatherDisplay:10.37,2013-09-01 15:23:00,
2013-09-01 11:28:00,87.3,68.6,29.88,SE,135,0.0,0.0,54,0.00,CLR,,0.00,WeatherDisplay:10.37,2013-09-01 15:28:00,
2013-09-01 11:33:00,87.6,67.8,29.88,SE,135,0.0,0.0,52,0.00,CLR,,0.00,WeatherDisplay:10.37,2013-09-01 15:33:00,
2013-09-01 11:38:00,88.0,67.6,29.88,SSE,158,0.0,0.0,51,0.00,CLR,,0.00,WeatherDisplay:10.37,2013-09-01 15:38:00,
2013-09-01 11:43:00,89.2,68.2,29.88,SSW,202,0.0,0.0,50,0.00,CLR,,0.00,WeatherDisplay:10.37,2013-09-01 15:43:00,
2013-09-01 11:48:00,90.0,66.4,29.88,SSE,158,0.0,0.0,46,0.00,CLR,,0.00,WeatherDisplay:10.37,2013-09-01 15:48:00,
2013-09-01 11:53:00,90.5,68.1,29.88,SW,225,0.0,0.0,48,0.00,CLR,,0.00,WeatherDisplay:10.37,2013-09-01 15:53:00,
2013-09-01 11:58:00,90.7,67.1,29.85,SSE,158,0.0,0.0,46,0.00,CLR,,0.00,WeatherDisplay:10.37,2013-09-01 15:58:00,
2013-09-01 12:03:00,89.6,66.7,29.85,SE,135,0.0,0.0,47,0.00,CLR,,0.00,WeatherDisplay:10.37,2013-09-01 16:03:00,
2013-09-01 12:08:00,89.8,65.0,29.85,SE,135,0.0,0.0,44,0.00,CLR,,0.00,WeatherDisplay:10.37,2013-09-01 16:08:00,
2013-09-01 12:13:00,90.7,66.4,29.85,South,180,0.0,0.0,45,0.00,CLR,,0.00,WeatherDisplay:10.37,2013-09-01 16:13:00,
2013-09-01 12:18:00,90.5,66.3,29.85,SSE,158,0.0,0.0,45,0.00,CLR,,0.00,WeatherDisplay:10.37,2013-09-01 16:18:00,
2013-09-01 12:23:00,91.2,65.6,29.85,SE,135,0.0,0.0,43,0.00,CLR,,0.00,WeatherDisplay:10.37,2013-09-01 16:23:00,
2013-09-01 12:28:00,90.7,65.8,29.85,South,180,0.0,0.0,44,0.00,CLR,,0.00,WeatherDisplay:10.37,2013-09-01 16:28:00,
2013-09-01 12:33:00,90.9,66.6,29.85,South,180,0.0,0.0,45,0.00,CLR,,0.00,WeatherDisplay:10.37,2013-09-01 16:33:00,
2013-09-01 12:38:00,91.9,65.6,29.85,East,90,0.0,0.0,42,0.00,CLR,,0.00,WeatherDisplay:10.37,2013-09-01 16:38:00,
2013-09-01 12:43:00,90.5,63.6,29.85,ESE,112,0.0,0.0,41,0.00,CLR,,0.00,WeatherDisplay:10.37,2013-09-01 16:43:00,
2013-09-01 12:48:00,90.9,63.9,29.85,ESE,112,0.0,0.0,41,0.00,CLR,,0.00,WeatherDisplay:10.37,2013-09-01 16:48:00,
2013-09-01 12:53:00,90.1,64.0,29.85,ESE,112,0.0,0.0,42,0.00,CLR,,0.00,WeatherDisplay:10.37,2013-09-01 16:53:00,
2013-09-01 12:58:00,90.0,64.5,29.85,SE,135,0.0,0.0,43,0.00,CLR,,0.00,WeatherDisplay:10.37,2013-09-01 16:58:00,
2013-09-01 13:03:00,90.3,65.4,29.85,SSE,158,0.0,0.0,44,0.00,CLR,,0.00,WeatherDisplay:10.37,2013-09-01 17:03:00,
2013-09-01 13:08:00,90.0,65.1,29.85,ESE,112,0.0,0.0,44,0.00,CLR,,0.00,WeatherDisplay:10.37,2013-09-01 17:08:00,
2013-09-01 13:13:00,88.9,68.4,29.85,SSE,158,0.0,0.0,51,0.00,CLR,,0.00,WeatherDisplay:10.37,2013-09-01 17:13:00,
2013-09-01 13:18:00,87.6,71.0,29.85,SE,135,0.0,0.0,58,0.00,CLR,,0.00,WeatherDisplay:10.37,2013-09-01 17:18:00,
2013-09-01 13:23:00,86.7,74.0,29.85,SE,135,0.0,0.0,66,0.00,CLR,,0.00,WeatherDisplay:10.37,2013-09-01 17:23:00,
2013-09-01 13:28:00,86.7,75.3,29.85,SE,135,0.0,0.0,69,0.00,CLR,,0.00,WeatherDisplay:10.37,2013-09-01 17:28:00,
2013-09-01 13:33:00,86.5,75.6,29.85,SSE,158,0.0,0.0,70,0.00,CLR,,0.00,WeatherDisplay:10.37,2013-09-01 17:33:00,
2013-09-01 13:38:00,86.5,75.2,29.85,SE,135,0.0,0.0,69,0.00,CLR,,0.00,WeatherDisplay:10.37,2013-09-01 17:38:00,
2013-09-01 13:43:00,87.3,72.6,29.83,SSE,158,0.0,0.0,62,0.00,CLR,,0.00,WeatherDisplay:10.37,2013-09-01 17:43:00,
2013-09-01 13:48:00,88.2,72.0,29.83,SE,135,0.0,0.0,59,0.00,CLR,,0.00,WeatherDisplay:10.37,2013-09-01 17:48:00,
2013-09-01 13:53:00,88.7,68.8,29.83,SE,135,0.0,0.0,52,0.00,CLR,,0.00,WeatherDisplay:10.37,2013-09-01 17:53:00,
2013-09-01 13:58:00,89.8,69.8,29.83,SE,135,0.0,0.0,52,0.00,CLR,,0.00,WeatherDisplay:10.37,2013-09-01 17:58:00,
2013-09-01 14:03:00,90.7,68.9,29.83,SE,135,2.3,0.0,49,0.00,CLR,,0.00,WeatherDisplay:10.37,2013-09-01 18:03:00,
2013-09-01 14:08:00,91.2,68.2,29.83,SSE,158,0.0,0.0,47,0.00,CLR,,0.00,WeatherDisplay:10.37,2013-09-01 18:08:00,
2013-09-01 14:13:00,91.0,66.1,29.83,ESE,112,0.0,0.0,44,0.00,CLR,,0.00,WeatherDisplay:10.37,2013-09-01 18:13:00,
2013-09-01 14:18:00,91.8,66.7,29.83,ESE,112,0.0,0.0,44,0.00,CLR,,0.00,WeatherDisplay:10.37,2013-09-01 18:18:00,
2013-09-01 14:23:00,91.2,64.2,29.83,SW,225,0.0,0.0,41,0.00,CLR,,0.00,WeatherDisplay:10.37,2013-09-01 18:23:00,
2013-09-01 14:28:00,91.8,64.0,29.83,SSE,158,0.0,0.0,40,0.00,CLR,,0.00,WeatherDisplay:10.37,2013-09-01 18:28:00,
2013-09-01 14:33:00,92.8,65.0,29.83,South,180,0.0,0.0,40,0.00,CLR,,0.00,WeatherDisplay:10.37,2013-09-01 18:33:00,
2013-09-01 14:38:00,92.8,64.2,29.83,East,90,0.0,0.0,39,0.00,CLR,,0.00,WeatherDisplay:10.37,2013-09-01 18:38:00,
2013-09-01 14:43:00,93.2,64.6,29.83,SW,225,0.0,0.0,39,0.00,CLR,,0.00,WeatherDisplay:10.37,2013-09-01 18:43:00,
2013-09-01 14:48:00,92.8,63.5,29.83,SE,135,0.0,0.0,38,0.00,CLR,,0.00,WeatherDisplay:10.37,2013-09-01 18:48:00,
2013-09-01 14:53:00,92.8,65.0,29.83,SE,135,0.0,0.0,40,0.00,CLR,,0.00,WeatherDisplay:10.37,2013-09-01 18:53:00,
2013-09-01 14:58:00,92.7,64.1,29.80,SW,225,0.0,0.0,39,0.00,CLR,,0.00,WeatherDisplay:10.37,2013-09-01 18:58:00,
2013-09-01 15:03:00,92.1,64.3,29.80,ESE,112,0.0,0.0,40,0.00,CLR,,0.00,WeatherDisplay:10.37,2013-09-01 19:03:00,
2013-09-01 15:08:00,91.9,64.2,29.80,SE,135,0.0,0.0,40,0.00,CLR,,0.00,WeatherDisplay:10.37,2013-09-01 19:08:00,
2013-09-01 15:13:00,91.9,63.4,29.80,SSW,202,0.0,0.0,39,0.00,CLR,,0.00,WeatherDisplay:10.37,2013-09-01 19:13:00,
2013-09-01 15:18:00,93.0,64.4,29.80,SSE,158,0.0,0.0,39,0.00,CLR,,0.00,WeatherDisplay:10.37,2013-09-01 19:18:00,
2013-09-01 15:23:00,93.6,63.4,29.80,ESE,112,0.0,0.0,37,0.00,CLR,,0.00,WeatherDisplay:10.37,2013-09-01 19:23:00,
2013-09-01 15:28:00,94.1,63.9,29.80,SE,135,0.0,0.0,37,0.00,CLR,,0.00,WeatherDisplay:10.37,2013-09-01 19:28:00,
2013-09-01 15:33:00,94.5,62.6,29.80,SSE,158,0.0,0.0,35,0.00,CLR,,0.00,WeatherDisplay:10.37,2013-09-01 19:33:00,
2013-09-01 15:38:00,95.0,63.1,29.80,SE,135,0.0,0.0,35,0.00,CLR,,0.00,WeatherDisplay:10.37,2013-09-01 19:38:00,
2013-09-01 15:43:00,94.3,64.0,29.80,SE,135,0.0,0.0,37,0.00,CLR,,0.00,WeatherDisplay:10.37,2013-09-01 19:43:00,
2013-09-01 15:48:00,93.4,62.4,29.80,ESE,112,0.0,0.0,36,0.00,CLR,,0.00,WeatherDisplay:10.37,2013-09-01 19:48:00,
2013-09-01 15:53:00,92.7,63.3,29.80,SE,135,0.0,0.0,38,0.00,CLR,,0.00,WeatherDisplay:10.37,2013-09-01 19:53:00,
2013-09-01 15:58:00,92.1,64.3,29.80,South,180,0.0,0.0,40,0.00,CLR,,0.00,WeatherDisplay:10.37,2013-09-01 19:58:00,
2013-09-01 16:03:00,92.1,63.6,29.80,SE,135,0.0,0.0,39,0.00,CLR,,0.00,WeatherDisplay:10.37,2013-09-01 20:03:00,
2013-09-01 16:08:00,91.8,64.0,29.80,SW,225,0.0,0.0,40,0.00,CLR,,0.00,WeatherDisplay:10.37,2013-09-01 20:08:00,
2013-09-01 16:13:00,91.6,62.4,29.77,SE,135,0.0,0.0,38,0.00,CLR,,0.00,WeatherDisplay:10.37,2013-09-01 20:13:00,
2013-09-01 16:18:00,91.4,61.5,29.77,SSE,158,0.0,0.0,37,0.00,CLR,,0.00,WeatherDisplay:10.37,2013-09-01 20:18:00,
2013-09-01 16:23:00,91.0,61.9,29.77,SE,135,0.0,0.0,38,0.00,CLR,,0.00,WeatherDisplay:10.37,2013-09-01 20:23:00,
2013-09-01 16:28:00,90.5,62.9,29.77,South,180,0.0,0.0,40,0.00,CLR,,0.00,WeatherDisplay:10.37,2013-09-01 20:28:00,
2013-09-01 16:33:00,90.1,63.3,29.77,South,180,0.0,0.0,41,0.00,CLR,,0.00,WeatherDisplay:10.37,2013-09-01 20:33:00,
2013-09-01 16:38:00,89.8,63.6,29.77,South,180,0.0,0.0,42,0.00,CLR,,0.00,WeatherDisplay:10.37,2013-09-01 20:38:00,
2013-09-01 16:43:00,89.4,64.6,29.77,South,180,0.0,0.0,44,0.00,CLR,,0.00,WeatherDisplay:10.37,2013-09-01 20:43:00,
2013-09-01 16:48:00,88.9,66.7,29.77,South,180,0.0,0.0,48,0.00,CLR,,0.00,WeatherDisplay:10.37,2013-09-01 20:48:00,
2013-09-01 16:53:00,88.2,66.6,29.77,South,180,0.0,0.0,49,0.00,CLR,,0.00,WeatherDisplay:10.37,2013-09-01 20:53:00,
2013-09-01 16:58:00,85.6,66.0,29.80,NNW,338,4.6,0.0,52,0.00,CLR,,0.00,WeatherDisplay:10.37,2013-09-01 20:58:00,
2013-09-01 17:03:00,82.4,66.6,29.80,NE,45,0.0,0.0,59,0.08,RA,,0.08,WeatherDisplay:10.37,2013-09-01 21:03:00,
2013-09-01 17:08:00,78.8,66.5,29.80,East,90,0.0,0.0,66,0.08,RA,,0.08,WeatherDisplay:10.37,2013-09-01 21:08:00,
2013-09-01 17:13:00,78.6,67.6,29.80,East,90,0.0,0.0,69,0.08,CLR,,0.08,WeatherDisplay:10.37,2013-09-01 21:13:00,
2013-09-01 17:18:00,77.0,68.9,29.80,East,90,0.0,0.0,76,0.08,CLR,,0.08,WeatherDisplay:10.37,2013-09-01 21:18:00,
2013-09-01 17:23:00,76.3,69.7,29.80,East,90,0.0,0.0,80,0.08,CLR,,0.08,WeatherDisplay:10.37,2013-09-01 21:23:00,
2013-09-01 17:28:00,75.7,70.6,29.80,SE,135,0.0,0.0,84,0.16,RA,,0.16,WeatherDisplay:10.37,2013-09-01 21:28:00,
2013-09-01 17:33:00,74.5,69.7,29.80,SE,135,0.0,0.0,85,0.21,RA,,0.21,WeatherDisplay:10.37,2013-09-01 21:33:00,
2013-09-01 17:38:00,73.9,69.5,29.80,SE,135,0.0,0.0,86,0.29,RA,,0.33,WeatherDisplay:10.37,2013-09-01 21:38:00,
2013-09-01 17:43:00,73.9,70.2,29.77,SE,135,0.0,0.0,88,0.33,RA,,0.33,WeatherDisplay:10.37,2013-09-01 21:43:00,
2013-09-01 17:48:00,73.8,70.6,29.77,South,180,0.0,0.0,90,0.33,RA,,0.33,WeatherDisplay:10.37,2013-09-01 21:48:00,
2013-09-01 17:53:00,73.9,71.1,29.77,SSE,158,0.0,0.0,91,0.33,CLR,,0.33,WeatherDisplay:10.37,2013-09-01 21:53:00,
2013-09-01 17:58:00,73.9,71.8,29.83,South,180,0.0,0.0,93,0.33,CLR,,0.33,WeatherDisplay:10.37,2013-09-01 21:58:00,
2013-09-01 18:03:00,73.6,71.4,29.83,SSW,202,2.3,0.0,93,0.34,RA,,0.50,WeatherDisplay:10.37,2013-09-01 22:03:00,
2013-09-01 18:08:00,73.2,71.4,29.83,SSW,202,0.0,0.0,94,0.50,RA,,0.62,WeatherDisplay:10.37,2013-09-01 22:08:00,
2013-09-01 18:13:00,72.9,71.0,29.85,SSW,202,0.0,0.0,94,0.58,RA,,0.66,WeatherDisplay:10.37,2013-09-01 22:13:00,
2013-09-01 18:18:00,72.9,71.3,29.85,SSW,202,0.0,0.0,95,0.62,RA,,0.70,WeatherDisplay:10.37,2013-09-01 22:18:00,
2013-09-01 18:23:00,73.0,71.5,29.85,SSW,202,0.0,0.0,95,0.62,RA,,0.70,WeatherDisplay:10.37,2013-09-01 22:23:00,
2013-09-01 18:28:00,73.0,71.5,29.83,SSW,202,0.0,0.0,95,0.54,CLR,,0.70,WeatherDisplay:10.37,2013-09-01 22:28:00,
2013-09-01 18:33:00,73.0,71.8,29.83,SSW,202,0.0,0.0,96,0.49,CLR,,0.70,WeatherDisplay:10.37,2013-09-01 22:33:00,
2013-09-01 18:38:00,73.0,71.8,29.83,SSW,202,0.0,0.0,96,0.41,CLR,,0.70,WeatherDisplay:10.37,2013-09-01 22:38:00,
2013-09-01 18:43:00,73.2,72.0,29.83,SSW,202,0.0,0.0,96,0.37,CLR,,0.70,WeatherDisplay:10.37,2013-09-01 22:43:00,
2013-09-01 18:48:00,73.2,72.0,29.83,SSW,202,0.0,0.0,96,0.37,CLR,,0.70,WeatherDisplay:10.37,2013-09-01 22:48:00,
2013-09-01 18:53:00,73.2,72.0,29.83,SSW,202,0.0,0.0,96,0.37,CLR,,0.70,WeatherDisplay:10.37,2013-09-01 22:53:00,
2013-09-01 18:58:00,73.2,72.3,29.83,SSW,202,0.0,0.0,97,0.37,CLR,,0.75,WeatherDisplay:10.37,2013-09-01 22:58:00,
2013-09-01 19:03:00,73.0,72.1,29.83,SSW,202,0.0,0.0,97,0.33,RA,,0.75,WeatherDisplay:10.37,2013-09-01 23:03:00,
2013-09-01 19:08:00,72.9,72.0,29.83,SSW,202,0.0,0.0,97,0.17,RA,,0.75,WeatherDisplay:10.37,2013-09-01 23:08:00,
2013-09-01 19:13:00,73.2,72.3,29.83,SSE,158,0.0,0.0,97,0.13,RA,,0.79,WeatherDisplay:10.37,2013-09-01 23:13:00,
2013-09-01 19:18:00,72.9,72.0,29.83,SSE,158,0.0,0.0,97,0.21,RA,,0.95,WeatherDisplay:10.37,2013-09-01 23:18:00,
2013-09-01 19:23:00,72.5,71.6,29.83,SSE,158,0.0,0.0,97,0.30,RA,,1.00,WeatherDisplay:10.37,2013-09-01 23:23:00,
2013-09-01 19:28:00,72.3,71.4,29.83,SSE,158,0.0,0.0,97,0.30,RA,,1.00,WeatherDisplay:10.37,2013-09-01 23:28:00,
2013-09-01 19:33:00,72.1,71.2,29.83,SSE,158,0.0,0.0,97,0.30,CLR,,1.00,WeatherDisplay:10.37,2013-09-01 23:33:00,
2013-09-01 19:38:00,72.0,71.1,29.83,SSE,158,0.0,0.0,97,0.34,RA,,1.04,WeatherDisplay:10.37,2013-09-01 23:38:00,
2013-09-01 19:43:00,71.8,70.9,29.85,SSE,158,0.0,0.0,97,0.34,RA,,1.04,WeatherDisplay:10.37,2013-09-01 23:43:00,
2013-09-01 19:48:00,71.8,70.9,29.85,SSE,158,0.0,0.0,97,0.34,CLR,,1.04,WeatherDisplay:10.37,2013-09-01 23:48:00,
2013-09-01 19:53:00,71.8,70.9,29.85,SSE,158,0.0,0.0,97,0.34,CLR,,1.07,WeatherDisplay:10.37,2013-09-01 23:53:00,
2013-09-01 19:58:00,71.8,70.9,29.83,SSE,158,0.0,0.0,97,0.38,RA,,1.07,WeatherDisplay:10.37,2013-09-01 23:58:00,
2013-09-01 20:03:00,71.8,70.9,29.83,SSE,158,0.0,0.0,97,0.33,RA,,1.07,WeatherDisplay:10.37,2013-09-02 00:03:00,
2013-09-01 20:08:00,71.8,70.9,29.83,SSE,158,0.0,0.0,97,0.33,CLR,,1.07,WeatherDisplay:10.37,2013-09-02 00:08:00,
2013-09-01 20:13:00,72.0,71.1,29.83,SSE,158,0.0,0.0,97,0.29,CLR,,1.11,WeatherDisplay:10.37,2013-09-02 00:13:00,
2013-09-01 20:18:00,72.0,71.1,29.83,SSE,158,0.0,0.0,97,0.20,RA,,1.11,WeatherDisplay:10.37,2013-09-02 00:18:00,
2013-09-01 20:23:00,72.0,71.1,29.83,SSE,158,0.0,0.0,97,0.17,RA,,1.17,WeatherDisplay:10.37,2013-09-02 00:23:00,
2013-09-01 20:28:00,72.0,71.1,29.80,SSE,158,0.0,0.0,97,0.17,RA,,1.17,WeatherDisplay:10.37,2013-09-02 00:28:00,
2013-09-01 20:33:00,72.0,71.1,29.80,SW,225,0.0,0.0,97,0.17,CLR,,1.17,WeatherDisplay:10.37,2013-09-02 00:33:00,
2013-09-01 20:38:00,72.1,71.2,29.80,North,0,0.0,0.0,97,0.13,CLR,,1.17,WeatherDisplay:10.37,2013-09-02 00:38:00,
2013-09-01 20:43:00,72.1,71.2,29.83,ENE,68,0.0,0.0,97,0.13,CLR,,1.17,WeatherDisplay:10.37,2013-09-02 00:43:00,
2013-09-01 20:48:00,72.1,71.5,29.83,NE,45,0.0,0.0,98,0.13,CLR,,1.17,WeatherDisplay:10.37,2013-09-02 00:48:00,
2013-09-01 20:53:00,72.1,71.5,29.83,NE,45,0.0,0.0,98,0.13,CLR,,1.17,WeatherDisplay:10.37,2013-09-02 00:53:00,
2013-09-01 20:58:00,72.1,71.5,29.85,NE,45,0.0,0.0,98,0.09,CLR,,1.17,WeatherDisplay:10.37,2013-09-02 00:58:00,
2013-09-01 21:03:00,72.1,71.5,29.85,NE,45,0.0,0.0,98,0.09,CLR,,1.17,WeatherDisplay:10.37,2013-09-02 01:03:00,
2013-09-01 21:08:00,72.1,71.5,29.85,NE,45,0.0,0.0,98,0.09,CLR,,1.17,WeatherDisplay:10.37,2013-09-02 01:08:00,
2013-09-01 21:13:00,72.1,71.5,29.85,NE,45,0.0,0.0,98,0.09,CLR,,1.17,WeatherDisplay:10.37,2013-09-02 01:13:00,
2013-09-01 21:18:00,72.1,71.5,29.85,NE,45,0.0,0.0,98,0.05,CLR,,1.17,WeatherDisplay:10.37,2013-09-02 01:18:00,
2013-09-01 21:23:00,72.0,71.4,29.85,NE,45,0.0,0.0,98,0.00,CLR,,1.17,WeatherDisplay:10.37,2013-09-02 01:23:00,
2013-09-01 21:28:00,72.0,71.4,29.83,NE,45,0.0,0.0,98,0.00,CLR,,1.17,WeatherDisplay:10.37,2013-09-02 01:28:00,
2013-09-01 21:33:00,72.0,71.4,29.83,NE,45,0.0,0.0,98,0.00,CLR,,1.17,WeatherDisplay:10.37,2013-09-02 01:33:00,
2013-09-01 21:38:00,71.8,71.2,29.83,NE,45,0.0,0.0,98,0.00,CLR,,1.17,WeatherDisplay:10.37,2013-09-02 01:38:00,
2013-09-01 21:43:00,71.8,71.2,29.83,NE,45,0.0,0.0,98,0.00,CLR,,1.17,WeatherDisplay:10.37,2013-09-02 01:43:00,
2013-09-01 21:48:00,71.8,71.2,29.83,NE,45,0.0,0.0,98,0.00,CLR,,1.17,WeatherDisplay:10.37,2013-09-02 01:48:00,
2013-09-01 21:53:00,71.8,71.2,29.83,NE,45,0.0,0.0,98,0.00,CLR,,1.17,WeatherDisplay:10.37,2013-09-02 01:53:00,
2013-09-01 21:58:00,71.8,71.2,29.83,NE,45,0.0,0.0,98,0.00,CLR,,1.17,WeatherDisplay:10.37,2013-09-02 01:58:00,
2013-09-01 22:03:00,71.8,71.2,29.83,NE,45,0.0,0.0,98,0.00,CLR,,1.17,WeatherDisplay:10.37,2013-09-02 02:03:00,
2013-09-01 22:08:00,71.8,71.2,29.83,NE,45,0.0,0.0,98,0.00,CLR,,1.17,WeatherDisplay:10.37,2013-09-02 02:08:00,
2013-09-01 22:13:00,71.8,71.2,29.83,NE,45,0.0,0.0,98,0.00,CLR,,1.17,WeatherDisplay:10.37,2013-09-02 02:13:00,
2013-09-01 22:18:00,71.8,71.2,29.83,NE,45,0.0,0.0,98,0.00,CLR,,1.17,WeatherDisplay:10.37,2013-09-02 02:18:00,
2013-09-01 22:23:00,71.8,71.2,29.83,NE,45,0.0,0.0,98,0.00,CLR,,1.17,WeatherDisplay:10.37,2013-09-02 02:23:00,
2013-09-01 22:28:00,72.0,71.4,29.85,NE,45,0.0,0.0,98,0.00,CLR,,1.17,WeatherDisplay:10.37,2013-09-02 02:28:00,
2013-09-01 22:33:00,72.0,71.4,29.85,NE,45,0.0,0.0,98,0.00,CLR,,1.17,WeatherDisplay:10.37,2013-09-02 02:33:00,
2013-09-01 22:38:00,72.0,71.4,29.85,NE,45,0.0,0.0,98,0.00,CLR,,1.17,WeatherDisplay:10.37,2013-09-02 02:38:00,
2013-09-01 22:43:00,72.0,71.4,29.85,NE,45,0.0,0.0,98,0.00,CLR,,1.17,WeatherDisplay:10.37,2013-09-02 02:43:00,
2013-09-01 22:48:00,72.0,71.4,29.85,NE,45,0.0,0.0,98,0.00,CLR,,1.17,WeatherDisplay:10.37,2013-09-02 02:48:00,
2013-09-01 22:53:00,72.0,71.4,29.85,NE,45,0.0,0.0,98,0.00,CLR,,1.17,WeatherDisplay:10.37,2013-09-02 02:53:00,
2013-09-01 22:58:00,72.0,71.4,29.85,NE,45,0.0,0.0,98,0.00,CLR,,1.17,WeatherDisplay:10.37,2013-09-02 02:58:00,
2013-09-01 23:03:00,72.0,71.4,29.85,NE,45,0.0,0.0,98,0.00,CLR,,1.17,WeatherDisplay:10.37,2013-09-02 03:03:00,
2013-09-01 23:08:00,72.0,71.4,29.85,NE,45,0.0,0.0,98,0.00,CLR,,1.17,WeatherDisplay:10.37,2013-09-02 03:08:00,
2013-09-01 23:13:00,72.0,71.4,29.85,NE,45,0.0,0.0,98,0.00,CLR,,1.17,WeatherDisplay:10.37,2013-09-02 03:13:00,
2013-09-01 23:18:00,72.0,71.4,29.85,NE,45,0.0,0.0,98,0.00,CLR,,1.17,WeatherDisplay:10.37,2013-09-02 03:18:00,
2013-09-01 23:23:00,71.8,71.2,29.85,NE,45,0.0,0.0,98,0.00,CLR,,1.17,WeatherDisplay:10.37,2013-09-02 03:23:00,
2013-09-01 23:28:00,71.8,71.2,29.85,NE,45,0.0,0.0,98,0.00,CLR,,1.17,WeatherDisplay:10.37,2013-09-02 03:28:00,
2013-09-01 23:34:00,71.8,71.2,29.85,NE,45,0.0,0.0,98,0.00,CLR,,1.17,WeatherDisplay:10.37,2013-09-02 03:34:00,
2013-09-01 23:39:00,71.8,71.2,29.85,NE,45,0.0,0.0,98,0.00,CLR,,1.17,WeatherDisplay:10.37,2013-09-02 03:39:00,
2013-09-01 23:44:00,71.8,71.2,29.85,NE,45,0.0,0.0,98,0.00,CLR,,1.17,WeatherDisplay:10.37,2013-09-02 03:44:00,
2013-09-01 23:49:00,71.8,71.2,29.85,NE,45,0.0,0.0,98,0.00,CLR,,1.17,WeatherDisplay:10.37,2013-09-02 03:49:00,
2013-09-01 23:53:00,71.8,71.2,29.85,NE,45,0.0,0.0,98,0.00,CLR,,1.17,WeatherDisplay:10.37,2013-09-02 03:53:00,
2013-09-01 23:59:00,71.8,71.2,29.85,NE,45,0.0,0.0,98,0.00,CLR,,1.17,WeatherDisplay:10.37,2013-09-02 03:59:00,